This is the latest recevied weather packets stored in our database for station/object KK7ISX. If no packets are shown the sender has not sent any weather packets the latest 10 day(s).
| Time | Temp. | Humidity | Pressure | Rain* | Wind** | Luminosity | Snow |
|---|---|---|---|---|---|---|---|
| 1777423004 | 17.78° C | 32% | 1018.1 hPa | 0 mm | - | 173 W/m² | - |
| 1777422699 | 17.78° C | 32% | 1018.2 hPa | 0 mm | - | 185 W/m² | - |
| 1777422395 | 18.33° C | 33% | 1018.5 hPa | 0 mm | - | 205 W/m² | - |
| 1777422090 | 17.78° C | 33% | 1018.5 hPa | 0 mm | - | 216 W/m² | - |
| 1777421789 | 18.33° C | 34% | 1018.2 hPa | 0 mm | - | 227 W/m² | - |
| 1777421485 | 17.78° C | 32% | 1018.5 hPa | 0 mm | - | 240 W/m² | - |
| 1777421181 | 17.78° C | 33% | 1018.3 hPa | 0 mm | - | 251 W/m² | - |
| 1777420878 | 17.78° C | 34% | 1018.5 hPa | 0 mm | - | 264 W/m² | - |
| 1777420574 | 17.78° C | 33% | 1018.4 hPa | 0 mm | - | 276 W/m² | - |
| 1777420270 | 17.78° C | 34% | 1018.7 hPa | 0 mm | - | 289 W/m² | - |
| 1777419965 | 17.78° C | 34% | 1018.5 hPa | 0 mm | - | 299 W/m² | - |
| 1777419663 | 17.78° C | 34% | 1018.5 hPa | 0 mm | - | 313 W/m² | - |
| 1777419361 | 17.78° C | 33% | 1018.5 hPa | 0 mm | - | 320 W/m² | - |
| 1777419060 | 17.78° C | 34% | 1018.3 hPa | 0 mm | - | 341 W/m² | - |
| 1777418759 | 17.78° C | 33% | 1018.6 hPa | 0 mm | - | 364 W/m² | - |
| 1777418456 | 17.22° C | 35% | 1018.6 hPa | 0 mm | - | 377 W/m² | - |
| 1777418152 | 17.78° C | 33% | 1018.6 hPa | 0 mm | - | 396 W/m² | - |
| 1777417849 | 17.78° C | 34% | 1018.5 hPa | 0 mm | - | 418 W/m² | - |
| 1777417544 | 17.78° C | 33% | 1018.7 hPa | 0 mm | - | 442 W/m² | - |
| 1777417241 | 17.22° C | 33% | 1018.6 hPa | 0 mm | - | 442 W/m² | - |
| 1777416937 | 17.22° C | 34% | 1018.7 hPa | 0 mm | - | 456 W/m² | - |
| 1777416632 | 17.22° C | 33% | 1018.7 hPa | 0 mm | - | 457 W/m² | - |
| 1777416328 | 17.22° C | 33% | 1018.7 hPa | 0 mm | - | 473 W/m² | - |
| 1777416027 | 17.22° C | 32% | 1018.8 hPa | 0 mm | - | 477 W/m² | - |
| 1777415723 | 17.22° C | 33% | 1018.8 hPa | 0 mm | - | 481 W/m² | - |
* Rain latest hour (hover to see other rain measurements)
** Current wind speed in m/s (hover to see current wind gust speed)